RH
55 56 57 58 59 60 60 61 61 61 61 61 61 62 62 62 62 62 62 62 63 64 64 65 66 67 68 68 69 70 73 75 77 78 78 78 76 74 72 71 71 72 72 73 74 74 74 73 74 74 75 76 78 79 79 80 81 83 84 84 85 86 86 87 88 89 90 89 88 86 84 82 81 81 81 81 81 81 80 79 79 78 78 77 76 75
59 60 61 62 62 63 63 63 63 63 63 63 64 64 64 64 64 64 64 64 65 66 67 68 69 70 70 70 70 71 73 76 77 77 76 75 73 72 71 72 73 74 74 74 74 74 74 73 74 74 75 76 77 78 79 80 81 82 83 84 86 88 89 89 89 89 88 87 85 84 82 81 81 80 80 80 80 79 79 79 79 78 78 78 78 78
63 64 65 65 65 65 65 65 65 65 65 65 65 65 65 65 65 65 65 67 68 70 71 71 71 71 71 71 70 70 72 76 76 75 73 72 71 71 71 73 74 74 74 74 74 74 74 74 74 74 75 76 77 78 79 80 82 83 85 87 88 89 90 89 88 86 85 85 84 83 82 83 83 82 81 81 81 81 81 81 81 81 81 81 81 82
66 67 68 68 67 67 66 66 66 66 66 66 66 66 65 65 66 66 68 70 72 73 73 73 72 71 71 70 69 68 69 72 72 72 70 71 71 72 72 73 73 73 73 73 73 73 74 74 74 75 75 76 77 78 80 81 83 84 85 86 87 87 87 86 85 84 84 84 84 85 85 86 86 85 85 85 85 85 85 84 84 84 84 84 84 84
70 70 70 69 68 68 68 67 67 67 67 66 66 66 66 67 68 70 73 74 75 75 73 72 71 69 68 67 64 63 64 66 68 68 69 70 71 72 72 72 71 71 71 72 73 73 74 74 75 75 76 77 78 79 81 82 83 84 84 84 84 84 83 83 83 84 84 85 86 87 87 87 87 87 87 87 87 87 86 86 86 85 84 84 84 84
72 71 71 70 69 69 69 68 67 67 66 66 66 67 68 70 73 75 77 76 75 73 70 68 67 65 63 61 60 59 61 64 65 66 67 68 69 70 70 70 70 70 71 72 73 74 74 75 75 75 76 77 78 79 81 81 82 82 82 81 81 81 81 82 83 84 84 85 86 86 86 86 86 86 86 86 86 86 86 86 85 84 85 85 85 85
73 72 71 70 70 69 68 67 67 66 66 67 68 70 73 77 79 79 77 74 70 67 64 63 61 59 58 58 58 58 60 61 63 64 64 65 66 67 68 69 69 70 71 72 73 73 74 75 75 75 77 77 78 78 79 79 80 80 80 80 80 81 81 82 83 83 83 84 84 85 85 85 85 85 85 84 85 85 85 86 85 84 85 84 85 86
74 72 71 70 69 68 67 66 66 65 66 69 72 76 81 82 80 76 70 66 62 60 58 57 57 57 57 57 58 59 59 60 60 61 62 63 64 65 66 68 69 70 71 72 73 73 74 75 76 76 77 77 77 78 78 78 78 78 79 80 80 81 81 81 82 82 82 82 83 83 84 84 83 83 83 84 85 86 86 87 87 86 86 86 86 86
75 72 70 68 67 66 66 66 66 67 69 74 79 83 86 81 74 67 61 57 56 55 55 56 56 57 58 58 58 59 59 60 61 62 63 64 65 66 66 68 70 71 71 72 73 73 75 76 76 77 77 77 77 78 78 78 78 79 79 80 81 81 81 81 81 81 81 81 82 82 83 83 83 83 84 86 87 87 87 88 88 88 88 89 88 87
72 70 69 67 66 66 66 67 69 71 75 80 82 81 78 71 64 58 56 55 56 56 57 57 58 58 59 59 59 60 61 62 63 64 66 66 67 68 68 69 70 70 71 72 73 74 75 76 76 76 77 77 78 78 78 79 79 79 79 80 80 81 81 81 82 82 82 81 81 82 83 83 83 84 86 88 88 87 87 89 89 89 89 89 88 87
70 69 68 67 67 67 68 70 73 78 83 82 76 69 62 59 57 57 58 59 59 59 60 60 60 60 60 61 62 63 64 65 66 66 66 66 66 67 67 68 69 70 71 72 73 74 75 75 75 75 76 76 76 77 78 79 79 79 80 81 81 81 81 81 82 82 82 81 82 83 84 83 84 85 87 88 87 86 87 88 87 87 87 89 89 90
69 68 67 68 68 69 71 76 81 85 82 73 65 60 57 58 59 60 62 63 63 63 62 62 62 62 63 64 65 66 67 67 67 67 67 66 66 66 67 68 69 70 71 72 73 73 72 72 73 73 74 75 75 77 78 79 79 79 80 81 81 81 81 81 82 81 81 81 82 83 84 84 85 86 87 86 85 84 85 86 86 86 87 90 91 92
69 68 68 69 71 74 80 84 84 78 69 63 61 61 61 62 63 64 65 65 65 65 64 64 64 65 66 67 68 68 68 68 68 68 67 68 68 69 70 71 72 73 73 72 71 70 69 69 70 71 72 73 74 74 74 74 75 77 79 80 80 80 81 81 80 80 80 81 82 83 83 83 84 85 87 86 85 84 84 85 86 87 89 90 91 92
69 69 70 73 77 81 86 81 74 67 63 62 62 63 64 65 66 67 68 67 67 66 66 67 68 68 69 69 68 68 67 67 68 68 69 70 71 72 73 73 73 73 72 71 70 69 68 68 69 69 70 70 70 69 69 70 72 75 78 79 80 80 81 81 81 80 81 82 82 83 82 82 83 84 86 85 85 85 85 86 87 88 89 90 90 90
70 72 76 81 85 86 81 73 67 64 64 64 65 66 67 68 68 69 68 68 68 68 69 70 70 70 69 68 67 66 66 67 69 71 73 74 74 73 72 72 71 71 70 69 69 68 68 68 69 69 68 68 67 68 69 71 74 76 78 79 80 81 82 82 82 82 82 81 82 82 82 82 83 84 85 86 86 86 86 87 88 88 86 88 88 89
77 84 90 91 86 79 72 68 66 65 65 66 67 68 69 69 70 69 69 69 70 71 72 72 72 70 68 66 65 65 65 69 72 75 76 75 73 71 70 70 70 70 69 69 69 69 69 69 69 69 68 68 68 69 72 75 77 79 79 80 81 81 82 82 82 82 81 81 82 82 82 83 84 84 84 86 87 87 87 87 87 87 87 88 87 87
89 93 92 84 77 72 68 67 66 67 67 68 69 70 70 70 71 71 72 73 73 74 74 75 74 73 69 66 65 65 67 72 75 77 76 73 71 70 69 69 69 70 69 69 69 69 69 69 69 68 68 67 68 71 74 75 77 78 79 80 81 81 81 81 81 81 81 82 82 82 83 84 84 85 85 86 86 86 87 86 86 86 87 86 85 84
94 89 81 76 72 69 68 68 69 69 70 71 71 72 72 72 73 73 75 76 77 77 77 78 77 75 74 71 68 68 71 74 76 76 74 72 70 69 69 69 70 70 70 70 70 69 69 69 68 68 68 68 70 73 75 77 77 78 79 79 80 80 80 81 81 81 81 81 82 82 83 83 84 85 85 86 86 86 86 86 86 86 86 85 84 86
85 79 74 72 71 70 70 70 71 72 73 73 73 73 74 74 75 76 77 79 80 81 82 82 81 79 77 74 73 73 73 75 75 75 74 72 70 69 69 69 70 70 70 69 69 68 68 68 68 68 68 69 71 72 74 75 76 77 77 79 79 79 80 80 80 80 80 81 81 82 82 82 83 84 85 86 85 85 85 86 86 85 86 85 86 88
79 75 73 73 73 73 73 73 74 75 76 76 76 77 78 78 79 80 80 81 83 85 87 88 86 83 81 79 77 75 74 74 76 76 74 72 70 69 69 70 70 70 69 69 68 68 68 68 68 68 68 68 69 71 72 73 74 76 77 78 78 79 80 80 80 80 80 81 81 81 81 82 82 83 83 85 85 85 85 85 85 85 87 88 89 89
78 77 76 75 75 76 77 77 76 76 76 78 80 82 83 83 83 83 84 86 89 91 93 91 89 85 82 79 76 74 74 76 77 77 75 72 71 70 70 69 69 69 69 68 68 68 68 68 68 68 67 68 69 70 72 73 75 76 76 77 78 79 79 80 80 80 80 80 80 80 81 81 81 82 82 83 83 83 85 86 87 88 89 90 89 88
79 78 77 77 79 81 81 80 79 79 78 81 84 87 88 89 89 89 90 92 93 94 93 92 88 83 80 78 76 76 75 76 77 77 75 75 73 70 69 68 68 68 68 68 68 67 67 67 67 67 67 68 69 71 72 73 74 74 75 76 77 78 79 79 80 80 80 81 81 81 80 81 81 81 81 82 84 85 86 86 87 87 88 88 87 87
81 82 81 81 82 83 83 83 83 83 84 87 89 91 93 93 93 93 93 94 94 93 90 86 82 80 78 77 77 76 75 74 74 74 75 74 71 69 68 68 68 68 68 67 67 66 66 67 67 67 67 67 68 70 71 73 74 75 75 76 77 78 79 79 80 80 80 80 80 80 80 80 81 81 82 83 84 84 85 85 86 86 86 87 87 88
83 83 82 83 83 84 86 88 89 91 93 93 94 95 95 94 92 91 91 90 88 86 83 81 79 78 77 76 75 74 73 72 72 72 73 72 71 69 68 69 69 69 68 67 66 66 66 66 66 66 67 67 68 70 71 73 74 76 76 78 78 78 79 79 79 79 80 79 79 79 80 80 81 81 81 81 82 82 83 84 85 86 86 87 87 87
82 82 83 85 87 89 93 94 96 96 95 91 90 91 91 89 86 84 82 82 81 81 82 82 81 78 76 74 73 72 71 70 70 70 72 71 71 70 69 69 69 68 67 66 66 66 67 67 67 67 67 68 68 69 70 72 74 75 77 77 77 77 77 77 78 78 78 79 79 79 80 80 80 80 81 81 81 82 83 83 84 85 85 86 87 87
85 87 87 88 90 91 93 92 93 92 90 87 86 85 83 83 84 85 86 84 82 82 82 82 80 77 74 73 72 71 70 70 70 70 71 71 71 70 69 69 68 68 67 67 67 67 68 68 68 68 68 69 69 70 70 71 72 73 74 74 74 74 75 76 76 77 78 78 78 79 80 80 81 81 82 82 82 83 83 84 85 85 86 86 87 89
87 89 88 89 89 89 89 88 87 86 84 84 83 83 83 85 88 89 87 83 83 83 84 82 79 76 73 72 71 70 70 70 71 71 72 72 72 71 69 68 68 68 67 67 68 69 69 70 70 70 70 70 69 69 68 69 70 70 71 71 72 73 73 74 75 76 77 78 79 80 80 81 81 82 82 82 82 83 83 84 85 86 87 87 89 90
89 90 90 89 87 87 86 84 82 80 79 80 81 82 84 87 90 90 88 85 84 84 84 81 79 77 74 73 71 71 71 72 72 71 71 71 71 70 69 68 68 69 69 70 70 70 71 71 71 70 69 68 67 66 66 66 67 68 69 70 70 72 73 74 75 77 78 79 79 80 80 81 81 81 81 81 82 82 83 83 84 85 86 87 88 89
89 88 86 84 81 79 77 74 73 73 75 81 83 85 85 88 89 89 88 86 85 85 83 82 80 79 77 75 73 73 72 71 70 69 68 70 70 70 70 70 71 71 72 73 72 70 69 68 67 66 65 64 64 64 64 64 65 67 68 69 70 71 73 74 75 76 77 77 78 79 79 80 80 80 81 81 81 81 81 82 83 84 86 87 89 90
82 78 75 73 72 71 70 70 70 72 76 83 85 85 84 85 85 85 85 84 85 86 85 84 82 81 80 78 76 73 70 68 67 68 69 72 73 73 73 73 74 75 75 76 74 71 66 63 62 62 61 62 63 64 65 66 67 68 69 70 71 72 72 73 74 75 75 76 76 77 78 79 79 80 81 81 81 81 81 82 83 84 86 87 89 90
74 72 70 69 69 70 71 73 75 77 78 81 82 82 81 81 82 83 84 86 88 89 89 88 86 84 83 81 78 74 69 67 68 71 73 77 78 77 76 77 78 77 77 79 78 75 68 63 61 61 62 63 65 66 67 68 69 70 70 71 71 71 72 72 73 73 74 74 75 76 76 77 78 79 80 80 81 81 82 82 83 84 86 88 89 91
72 71 71 70 71 72 74 76 78 78 79 80 80 80 80 81 82 84 86 88 90 91 91 90 89 86 85 83 81 77 73 71 72 74 77 80 81 80 79 80 80 79 78 80 81 80 74 69 66 64 65 67 68 69 69 69 70 70 70 71 71 71 71 72 72 72 73 73 74 74 75 76 78 79 80 81 82 83 83 84 84 85 87 88 89 91
71 71 71 72 73 75 77 79 79 79 79 80 81 81 81 81 82 83 85 86 88 89 90 91 89 88 86 84 82 79 76 75 75 77 79 83 84 83 81 81 81 80 78 78 79 79 78 74 72 69 68 68 68 68 68 69 69 69 70 70 71 71 70 71 71 72 72 73 73 74 75 77 78 80 81 82 83 84 85 85 85 86 87 88 89 91
71 72 74 76 78 79 80 79 79 79 80 81 81 82 82 81 81 81 82 83 85 86 88 90 90 89 88 85 82 80 77 77 77 79 81 86 88 86 83 83 82 81 80 78 77 76 75 74 72 71 69 68 67 67 67 68 68 68 68 69 69 70 70 71 71 72 73 74 75 76 76 78 79 80 81 82 83 84 85 86 86 87 87 89 90 92
76 78 80 81 81 81 80 80 79 79 80 80 81 81 81 81 81 81 81 82 83 85 87 89 90 91 91 89 86 83 81 81 81 82 85 89 91 89 86 85 83 81 82 79 77 76 74 73 71 70 70 69 68 67 66 66 66 66 67 67 68 69 70 71 72 73 74 75 76 76 78 78 79 80 81 82 83 84 85 86 86 86 87 88 89 91
82 83 83 82 82 81 81 80 80 80 80 80 80 80 81 81 81 81 82 83 83 84 86 88 89 90 91 91 90 89 87 86 85 86 88 91 93 92 89 86 84 84 85 82 81 79 77 74 73 72 71 70 69 66 65 65 65 66 66 68 69 70 71 72 73 74 75 76 77 78 78 79 80 81 82 82 84 85 85 85 85 86 86 86 86 87
85 84 82 82 81 81 81 81 81 81 81 80 81 81 82 82 83 83 84 85 85 86 87 88 89 90 90 91 91 91 90 89 88 88 89 91 92 92 91 89 87 87 88 87 85 82 80 78 75 73 71 70 68 66 65 65 66 67 68 69 70 71 72 73 74 75 76 77 78 79 79 80 81 81 82 83 84 85 85 86 85 85 85 85 85 85
84 82 81 81 82 82 82 81 81 82 82 82 82 83 84 84 85 86 87 87 87 88 87 88 88 88 87 88 88 88 89 88 88 89 89 91 92 91 89 91 90 90 90 91 90 88 86 82 79 75 72 69 68 67 68 68 69 69 70 70 71 72 73 74 75 75 76 77 78 79 80 80 81 82 82 83 84 84 85 85 85 84 84 84 85 85
84 83 82 81 82 82 83 83 82 82 83 83 84 85 86 86 87 87 87 87 87 86 86 86 86 86 86 86 87 87 89 89 89 89 89 90 91 91 90 92 92 91 91 92 92 92 90 86 82 78 75 73 71 70 70 71 71 71 72 72 72 73 73 73 74 75 76 77 78 79 80 81 81 82 83 83 84 85 85 85 85 84 84 85 85 84
84 83 82 82 83 83 83 83 83 84 85 86 87 87 87 87 86 85 85 85 85 85 85 85 86 86 86 86 87 87 88 87 87 86 86 86 87 89 90 92 92 92 92 92 92 93 92 89 85 81 79 78 76 74 73 73 72 73 73 74 73 72 72 73 74 75 76 78 79 81 81 81 82 83 83 84 84 85 86 85 84 83 83 84 85 86
84 84 83 83 83 84 84 84 84 85 87 88 88 88 86 86 85 84 84 84 85 85 85 86 86 86 85 85 85 85 85 85 85 85 84 83 83 83 85 88 90 92 92 92 92 92 91 90 87 84 82 81 79 78 77 75 74 74 75 76 75 74 73 74 76 77 78 78 79 79 80 80 81 82 82 83 83 83 84 84 84 84 84 85 86 87
85 85 84 84 84 85 85 86 87 88 88 87 86 86 85 85 85 85 85 85 85 85 85 85 85 85 84 84 84 84 83 83 82 81 81 80 79 79 80 82 85 88 90 90 90 89 88 87 87 86 84 83 81 80 77 75 75 75 76 76 77 76 76 75 74 75 75 76 76 77 78 80 81 81 82 83 83 83 83 83 84 85 85 86 87 87
87 86 86 85 86 86 88 88 88 88 87 86 85 85 85 85 85 86 86 86 86 85 85 85 86 86 85 83 82 81 80 79 79 78 78 77 77 77 78 79 80 82 86 89 89 89 87 87 86 86 85 85 85 84 80 77 76 75 76 76 78 78 77 74 73 73 74 76 77 78 80 81 82 83 83 84 84 84 84 84 83 83 84 85 86 86
88 88 88 88 87 87 88 88 87 86 86 86 86 85 85 86 87 87 87 87 86 85 85 85 86 86 86 83 81 78 77 77 77 77 77 77 78 78 78 78 79 81 84 89 91 89 86 85 84 84 83 84 85 84 81 79 78 77 76 77 79 80 80 78 77 77 79 79 80 80 81 82 82 83 83 83 84 84 84 84 84 84 84 84 85 86
89 89 89 88 88 88 88 87 86 87 87 86 86 86 85 86 86 86 86 87 86 86 86 86 87 87 84 81 78 77 76 76 77 78 78 78 78 78 78 79 79 80 82 86 89 91 91 88 85 83 83 85 86 86 85 82 81 80 79 79 80 80 80 80 80 80 81 81 81 81 81 81 82 82 84 83 82 82 82 83 83 83 84 85 86 88
89 88 88 88 88 88 87 87 87 87 87 86 86 85 85 85 85 86 86 87 87 87 87 88 88 87 83 81 79 78 78 77 77 77 77 77 77 78 78 79 80 81 83 85 87 89 90 90 88 87 87 87 87 85 84 83 82 81 79 79 79 79 79 78 78 79 79 79 79 79 79 80 81 83 84 83 82 81 81 82 83 84 86 88 89 90
89 89 88 88 88 87 87 87 86 86 86 86 85 85 85 85 85 86 86 87 88 88 88 88 87 86 84 82 81 80 80 79 78 77 77 77 77 78 79 79 80 81 83 85 86 87 88 89 90 91 91 90 87 83 80 79 79 80 79 79 79 79 79 78 77 77 77 78 78 79 80 81 82 83 83 82 81 81 81 82 83 84 86 88 89 90
90 89 89 88 88 87 87 86 86 86 86 86 85 85 85 85 86 87 87 87 88 88 88 87 85 84 83 81 81 80 81 80 79 79 78 77 78 78 79 80 81 82 83 84 85 86 87 87 89 91 93 92 89 85 80 80 80 80 80 80 80 80 79 78 77 77 77 78 79 80 81 83 84 85 85 84 83 82 81 81 82 82 83 84 85 86
89 89 89 89 88 88 87 87 86 86 86 86 85 85 85 86 86 87 87 87 87 87 87 86 85 84 83 81 81 80 80 80 79 79 78 78 78 78 79 80 81 82 82 82 83 83 83 83 84 85 88 90 90 88 85 84 83 82 82 81 81 81 81 79 77 76 76 77 78 79 81 83 86 87 88 89 87 84 81 80 80 79 80 81 81 81
89 88 88 88 88 88 87 87 87 87 87 87 86 86 86 85 85 85 85 85 85 86 85 85 85 84 83 82 81 81 80 80 80 79 78 78 78 79 80 81 81 81 81 81 80 79 78 77 76 77 78 81 85 87 89 87 85 84 83 82 81 80 80 79 77 76 77 78 79 81 83 85 88 90 91 91 89 85 81 79 78 77 77 78 78 79
89 88 88 88 88 88 88 87 87 87 87 87 87 86 86 85 85 85 84 84 84 84 84 84 85 84 83 82 81 81 80 81 81 80 79 79 79 80 81 82 83 83 83 81 79 77 74 73 71 70 68 70 73 78 83 85 85 84 83 82 81 80 80 79 79 78 79 81 82 85 87 89 90 91 92 91 88 85 80 78 76 75 75 76 77 78
Wind_Speed
15 17 18 18 18 19 19 19 20 21 22 23 24 24 25 25 25 25 25 25 25 26 26 26 26 26 26 26 26 25 25 24 24 24 24 24 25 25 25 25 25 25 25 26 26 25 25 25 25 25 25 25 25 25 25 25 24 24 25 24 25 25 25 25 25 26 26 26 27 27 27 27 27 28 27 28 28 28 28 28 28 29 29 29 29 29
16 16 17 17 17 18 19 19 19 20 21 23 24 24 25 25 26 26 25 25 25 25 25 26 26 26 26 26 26 25 25 24 24 24 24 24 25 25 25 25 26 26 26 26 26 26 25 25 25 25 25 25 25 25 25 25 24 24 25 25 25 25 25 26 26 26 26 27 27 27 27 27 27 28 28 28 28 28 28 28 28 29 29 29 29 29
15 16 16 16 16 17 18 19 19 19 21 22 23 24 25 25 26 25 25 25 25 25 25 25 25 25 25 26 26 25 24 24 24 24 24 25 25 25 26 26 26 26 26 26 26 26 25 25 25 25 25 25 25 25 25 25 25 25 25 25 26 26 26 26 26 27 27 27 27 27 27 27 27 27 27 27 28 28 28 28 28 28 28 28 29 29
15 16 16 17 16 17 17 18 19 20 21 22 23 24 24 24 25 25 24 25 25 25 24 24 24 24 25 25 26 25 24 24 23 24 24 25 26 26 26 27 27 27 26 26 26 25 25 25 25 25 25 25 25 25 25 25 25 26 26 26 26 27 27 27 27 27 27 27 27 27 27 27 27 27 27 27 27 27 27 27 28 28 28 28 28 28
15 15 16 17 17 17 17 18 19 20 21 22 23 23 23 23 23 24 24 24 24 24 23 23 23 24 24 25 25 25 24 23 23 24 25 25 26 27 27 27 27 26 26 26 25 25 25 25 25 25 25 25 25 25 26 26 26 27 27 27 27 27 27 27 27 27 27 27 27 26 26 26 26 26 26 26 26 26 26 27 27 27 27 28 28 28
15 15 16 16 17 17 18 18 19 20 22 22 22 22 22 22 22 22 23 22 22 22 22 23 23 23 24 24 24 24 24 23 24 24 25 26 26 27 27 26 26 25 25 25 25 25 25 25 25 25 25 25 26 26 26 27 27 27 28 28 28 27 27 27 27 26 26 26 25 25 25 25 25 25 25 25 26 26 26 26 26 27 27 27 27 27
16 16 16 16 17 18 18 18 19 20 21 22 22 21 21 20 20 20 21 21 21 22 23 23 23 23 23 23 23 24 24 24 25 25 25 26 26 26 26 25 25 25 25 25 25 25 25 25 25 25 25 26 26 27 27 28 28 28 28 27 27 27 26 26 25 25 25 24 24 24 24 24 25 25 25 25 25 26 26 26 26 26 26 27 27 27
16 17 17 17 17 18 18 18 19 20 21 22 21 20 20 19 19 19 20 20 21 22 22 23 23 23 23 23 23 24 25 26 26 26 26 26 25 25 25 25 24 24 24 25 25 25 25 25 25 26 26 27 27 28 28 28 28 28 27 27 26 25 25 25 24 24 24 24 24 24 24 24 24 25 25 25 25 26 26 26 26 26 26 27 27 27
16 17 17 16 17 18 19 20 20 20 21 20 19 18 19 20 20 21 21 21 21 21 21 22 23 23 23 23 24 25 25 25 25 25 25 25 25 25 25 24 24 24 24 24 24 24 25 25 26 27 27 28 28 29 29 28 28 27 26 26 25 25 24 24 24 24 24 24 24 24 24 24 25 25 25 26 26 26 26 26 26 27 27 27 28 28
16 17 17 17 18 18 19 21 21 20 18 17 16 16 17 19 21 22 22 22 21 21 21 21 22 23 24 24 24 25 25 25 25 24 24 24 24 24 24 24 24 24 24 24 24 25 25 26 27 28 28 29 29 29 28 28 27 26 26 25 25 24 24 24 24 24 24 24 24 25 25 25 25 25 26 26 27 27 27 27 27 27 28 28 28 29
16 17 18 18 19 19 19 19 19 18 15 15 16 17 17 18 19 21 22 23 23 22 22 21 22 22 24 24 25 25 25 25 25 25 24 24 24 23 23 23 23 23 23 24 25 26 27 28 28 28 29 29 28 28 27 27 26 26 25 25 25 25 24 24 24 24 24 25 25 25 25 26 26 26 27 27 27 27 27 27 28 28 28 29 29 29
16 17 18 18 19 18 17 16 14 13 13 15 17 18 18 18 18 20 21 22 23 23 23 22 22 22 23 24 25 25 25 25 25 25 24 24 23 22 22 22 22 23 24 25 26 27 28 28 28 28 28 28 27 27 27 26 26 26 26 26 25 25 25 25 25 25 25 25 26 26 26 27 27 27 27 27 27 27 27 28 28 28 28 29 29 30
17 17 18 18 17 16 13 12 12 13 15 17 17 18 19 20 20 20 20 22 22 23 23 23 23 23 23 24 24 24 24 24 24 23 22 21 20 20 21 22 23 25 26 27 28 29 29 28 28 27 27 27 27 27 27 27 27 26 26 26 26 26 26 26 26 26 26 27 27 27 27 27 27 27 27 28 28 28 28 28 28 28 29 29 29 30
17 17 17 16 14 12 10 11 13 15 17 18 18 19 20 21 21 21 21 21 22 22 22 23 23 23 23 23 22 22 22 22 22 21 20 19 19 20 21 23 25 26 27 28 28 29 29 28 27 27 28 28 29 29 29 29 28 27 27 27 27 27 27 27 27 27 28 28 28 28 28 28 28 27 28 28 28 28 28 28 28 29 29 30 30 30
17 16 14 12 10 9 11 14 16 18 19 19 19 20 21 21 21 20 20 20 21 21 22 22 23 23 21 20 20 20 20 19 19 19 19 20 20 21 23 25 26 27 27 27 28 28 28 27 27 28 29 29 30 30 29 28 28 27 27 28 28 28 28 28 29 29 29 29 28 28 28 28 28 28 28 28 28 29 29 29 29 29 30 30 31 31
15 12 10 9 10 12 15 17 18 19 20 20 20 20 20 20 20 19 19 20 21 21 20 20 20 20 20 19 18 18 18 18 17 18 20 22 23 24 24 25 26 27 27 27 27 28 28 27 27 28 29 29 29 29 28 28 28 28 29 29 29 30 30 30 30 29 29 29 29 29 29 29 29 29 29 29 29 29 29 29 30 30 30 30 30 31
11 8 8 10 13 16 18 19 19 20 20 20 19 19 19 19 19 19 19 20 20 20 19 17 15 13 14 19 19 17 17 18 19 20 22 25 26 26 25 25 25 26 27 26 26 26 27 27 27 28 28 29 29 28 28 29 29 30 30 30 31 30 30 30 30 30 30 30 29 29 29 29 29 30 29 29 29 29 29 30 30 30 30 30 30 31
9 10 13 15 17 19 20 20 19 19 19 19 19 19 19 19 20 20 20 20 19 19 18 17 15 12 11 15 18 18 18 19 21 23 24 26 27 26 25 24 24 25 26 26 26 26 26 26 27 28 28 29 29 29 29 30 30 31 31 31 31 31 31 30 30 30 30 30 30 30 30 30 30 30 30 30 30 30 30 30 30 30 30 30 30 30
13 15 16 18 19 20 20 19 19 18 18 18 19 19 20 20 20 20 20 20 19 18 17 16 16 16 16 17 20 21 21 22 23 24 25 26 27 26 24 23 23 24 25 25 25 25 26 26 27 28 29 29 30 30 30 30 31 31 31 31 31 31 31 31 31 31 31 31 31 31 31 30 30 30 30 30 30 30 30 30 30 30 30 30 30 30
18 18 18 19 19 20 19 19 18 18 18 19 20 21 21 21 21 21 21 20 19 17 16 15 16 17 17 20 22 24 24 24 23 23 24 25 26 25 23 22 22 23 24 25 25 25 25 26 28 29 29 30 30 30 30 30 30 31 31 31 32 32 32 32 31 31 31 31 31 31 31 31 30 30 30 30 30 30 30 30 30 31 31 31 31 31
19 19 19 19 19 19 18 18 19 19 20 22 22 22 22 22 21 21 19 18 17 15 15 14 15 17 19 22 25 26 26 24 22 22 23 23 24 23 22 21 21 22 24 25 25 25 25 26 27 28 29 30 30 30 30 30 31 31 31 32 32 32 32 32 32 31 31 31 31 31 31 31 31 30 30 30 30 30 31 31 31 31 32 32 32 32
20 20 20 19 19 19 19 20 21 23 24 25 24 23 22 21 20 19 17 16 15 14 14 14 17 20 23 25 26 27 26 23 21 21 21 20 22 23 22 20 20 22 23 25 25 25 25 26 27 28 29 29 30 30 30 31 31 31 32 32 32 32 32 32 32 32 31 31 31 31 31 31 31 31 31 31 31 31 31 32 32 32 32 32 32 32
20 20 20 19 19 20 21 23 25 26 27 26 26 25 23 22 20 18 17 16 16 16 18 21 23 24 25 25 25 25 24 23 21 20 18 16 18 22 21 20 20 22 23 24 25 25 25 25 26 27 28 29 29 30 30 31 31 31 32 32 32 32 32 32 32 31 31 31 31 31 31 31 31 31 31 31 31 31 32 31 31 32 32 32 32 32
19 19 20 20 21 22 23 24 25 25 25 25 24 23 21 19 17 17 18 19 20 21 22 24 24 23 23 23 23 23 23 21 19 18 17 16 19 21 22 21 21 22 24 25 25 25 25 25 26 27 28 29 29 30 30 31 31 31 31 31 32 32 32 32 32 31 31 31 31 31 31 31 31 32 32 32 32 32 32 31 31 31 31 31 31 31
19 20 21 21 21 21 22 22 22 22 22 21 20 19 18 19 21 23 25 25 23 22 21 20 20 20 20 20 21 21 21 20 18 17 16 17 19 22 22 21 21 22 24 25 25 24 25 25 26 27 28 29 30 30 30 30 30 30 31 31 31 31 31 31 31 31 31 31 31 32 32 32 32 32 32 32 32 32 31 31 31 31 31 30 30 31
19 19 20 20 20 20 21 21 21 21 22 22 22 23 24 24 24 23 23 22 20 18 18 17 16 17 19 19 19 20 21 20 18 17 17 17 19 22 23 21 21 22 24 26 25 25 25 26 26 27 28 29 29 30 30 30 30 30 30 30 30 30 31 31 31 32 32 32 32 32 32 32 32 32 32 32 32 31 31 31 31 31 30 30 31 31
18 18 18 18 19 19 20 20 21 21 22 22 22 22 22 21 20 19 18 17 16 16 15 14 14 15 18 18 18 20 21 21 19 18 18 18 19 21 22 21 21 22 24 25 25 25 25 25 26 27 28 29 29 29 29 29 28 28 28 29 29 30 31 31 32 32 32 33 33 33 32 32 32 32 32 32 31 31 31 31 30 30 30 30 30 30
16 16 16 17 18 18 19 20 21 22 22 22 21 20 19 18 17 16 15 16 16 16 15 14 13 12 14 16 18 21 22 22 20 19 19 18 17 18 21 21 21 22 23 25 26 26 25 25 26 26 27 28 28 28 27 27 26 27 27 28 29 30 31 32 33 33 33 32 32 32 32 32 32 32 31 31 31 31 31 30 30 30 29 29 28 28
15 15 16 17 18 19 20 21 22 22 21 19 18 17 16 15 15 15 16 17 17 16 16 16 15 14 15 18 20 22 23 21 20 18 17 16 16 18 21 21 21 21 22 24 26 27 25 24 23 23 24 25 25 25 25 26 26 27 28 29 30 31 32 32 32 32 32 32 32 32 32 32 32 32 31 31 31 31 30 30 30 29 28 27 26 25
16 18 19 20 21 22 22 21 21 20 18 17 16 15 14 15 16 17 18 18 18 17 16 16 17 17 17 18 18 17 18 19 18 15 15 15 16 19 21 21 21 21 20 19 17 17 20 23 22 21 21 22 24 24 26 27 27 28 29 30 30 31 31 31 31 31 31 31 31 31 31 31 31 31 31 31 31 30 30 30 29 28 27 26 25 25
20 22 23 24 24 23 21 20 19 18 17 16 16 15 15 16 17 18 18 18 17 17 17 17 17 17 17 14 10 7 9 17 19 16 16 16 17 20 21 21 21 21 20 16 8 4 11 18 22 22 21 22 24 25 27 27 27 28 29 29 30 30 30 30 30 30 31 31 31 31 31 31 31 31 31 30 30 30 30 29 28 27 26 26 25 25
23 24 24 24 23 21 19 18 18 18 18 17 16 16 16 16 16 16 17 17 17 17 17 17 18 18 18 16 11 9 13 21 22 20 19 18 19 21 21 20 20 21 21 19 14 9 8 9 18 26 25 24 25 26 27 27 27 27 28 28 29 30 30 30 29 30 30 30 30 30 30 30 30 30 30 30 30 30 29 29 28 27 26 25 24 24
23 23 23 22 21 19 18 18 18 18 18 17 17 16 16 16 15 15 16 16 17 17 17 18 18 19 19 20 19 20 23 25 25 22 20 18 19 20 21 21 21 21 22 21 21 19 15 15 20 26 27 26 26 25 25 26 26 26 27 28 29 30 30 29 29 29 29 29 29 30 30 30 29 29 29 29 29 29 29 29 28 27 25 25 24 24
22 22 21 20 19 18 18 17 17 17 17 16 16 16 16 16 16 16 16 17 17 18 18 19 19 20 20 20 21 23 26 26 24 22 20 19 19 20 22 21 21 22 22 21 22 22 21 22 23 24 25 27 27 26 25 25 26 26 27 28 29 29 30 29 29 29 29 29 29 30 30 30 29 29 29 29 29 28 28 27 27 26 25 25 25 24
20 19 19 18 18 17 17 17 17 17 16 16 15 15 16 16 17 17 18 18 18 19 19 20 20 21 21 21 21 23 25 27 25 23 21 20 20 21 22 22 22 22 21 21 21 20 20 22 24 23 23 25 27 27 26 25 25 26 27 28 28 29 29 29 29 29 29 29 30 30 30 30 30 29 29 29 28 28 27 27 26 26 26 26 25 25
18 17 17 16 16 16 16 16 16 16 16 16 16 16 17 17 18 18 19 19 20 20 20 21 22 22 23 23 23 25 27 29 28 26 23 23 22 22 22 22 22 22 21 21 21 20 19 21 23 24 23 22 22 25 27 26 26 26 27 27 28 28 29 29 29 29 29 29 29 29 29 29 29 29 29 29 28 28 27 27 27 27 27 27 27 27
15 15 15 15 15 16 16 16 16 16 17 17 17 18 18 18 19 20 20 21 21 22 22 23 23 23 24 25 26 27 28 29 29 29 28 27 26 26 24 24 25 24 21 21 21 22 21 20 21 22 22 20 20 21 25 27 28 27 28 28 28 28 29 29 28 28 28 28 28 28 28 28 28 28 28 28 28 28 28 28 28 28 27 27 27 27
14 14 15 15 15 15 16 16 17 17 17 18 18 19 19 20 20 21 21 21 22 22 23 23 23 24 25 25 27 29 31 32 33 33 33 31 29 28 26 26 26 25 23 22 22 22 21 18 15 14 15 19 23 24 26 27 28 28 29 29 28 28 29 28 28 27 26 26 27 27 27 27 27 28 28 28 28 28 28 28 28 28 27 27 27 27
14 14 15 15 15 15 16 16 17 18 18 19 20 20 20 21 21 21 21 21 21 21 22 22 23 25 26 28 29 30 30 31 32 33 33 32 31 29 28 26 26 26 26 25 24 23 22 20 17 13 12 17 22 26 27 27 27 28 29 29 29 29 28 27 26 25 25 26 26 27 27 28 28 28 28 28 28 27 27 27 27 27 26 26 26 26
14 15 15 15 15 16 16 17 18 18 19 20 21 21 20 20 21 21 21 21 21 21 22 23 24 25 26 26 27 27 28 29 30 31 31 31 31 31 29 27 27 27 26 26 25 24 22 22 23 23 23 21 22 24 26 28 28 28 28 26 26 27 28 27 27 27 27 27 27 27 27 28 27 27 27 27 27 26 26 26 27 26 26 25 24 24
14 15 16 16 16 17 17 18 18 19 19 19 20 20 20 20 20 21 22 22 22 22 22 22 23 24 25 26 26 27 27 28 29 29 29 30 30 30 30 29 28 28 27 26 25 24 23 23 24 25 25 25 25 26 27 28 29 29 27 25 25 28 30 30 29 28 27 27 27 26 26 27 26 26 27 27 27 27 27 27 27 27 26 25 24 24
14 15 16 17 17 18 18 18 18 18 18 19 19 19 19 19 20 20 21 22 22 22 22 22 22 24 25 26 27 27 26 26 27 27 27 28 28 28 29 29 29 28 26 26 26 26 26 25 25 25 25 26 25 25 26 29 30 29 27 26 27 29 30 30 29 27 26 26 26 26 26 26 26 27 27 27 28 28 28 28 28 27 26 26 25 26
15 16 17 18 18 19 18 18 18 18 18 18 19 19 19 19 20 20 20 21 22 23 22 22 22 23 24 26 27 27 27 27 26 26 26 26 26 26 27 28 29 29 28 26 26 26 27 27 26 26 26 26 25 25 26 28 30 30 28 28 26 24 22 25 28 27 25 25 26 26 26 26 26 27 27 27 27 28 28 28 28 28 27 27 27 27
16 17 18 18 18 18 18 17 18 18 18 19 19 20 20 19 19 19 20 21 22 22 22 22 22 22 22 24 25 27 28 28 27 26 25 25 24 25 25 26 27 28 28 27 25 25 27 27 27 27 27 26 26 26 27 28 29 29 29 29 27 25 23 25 27 28 27 26 26 27 27 26 27 27 27 27 27 27 26 26 27 28 28 29 29 29
17 17 17 17 17 17 17 18 18 18 19 19 20 20 20 20 19 20 20 21 22 22 22 22 21 20 21 22 24 25 27 28 28 27 26 25 24 24 24 25 26 27 28 28 27 26 25 25 27 28 28 26 26 26 26 27 28 29 29 29 28 27 28 29 28 27 26 26 26 26 27 27 27 27 26 27 27 27 26 26 27 28 29 30 30 30
16 17 17 17 18 18 18 18 19 19 19 19 20 20 20 20 20 20 20 21 21 22 22 21 20 19 20 21 23 24 25 26 28 28 27 27 26 25 25 25 25 26 26 27 27 27 27 27 28 28 27 26 26 27 28 27 27 27 28 28 28 27 28 28 27 27 26 26 26 27 27 27 26 25 25 26 27 28 28 27 27 27 28 28 28 29
16 16 17 17 18 18 18 19 19 19 19 20 20 20 21 21 21 21 21 21 20 21 21 21 20 19 20 21 22 22 23 24 26 28 28 28 28 27 26 25 25 25 25 26 27 28 28 29 30 29 27 25 25 26 29 29 28 27 27 28 27 26 26 27 27 27 27 26 27 27 27 27 26 26 26 27 28 28 27 26 26 26 26 26 27 28
16 17 17 18 18 18 19 19 19 19 19 20 21 21 21 21 20 20 20 21 21 20 20 20 20 20 21 22 22 22 22 23 25 27 28 28 28 28 27 26 26 25 25 26 26 27 28 29 30 30 28 26 25 26 28 30 29 28 27 27 27 26 26 27 28 28 27 27 27 28 28 26 24 24 25 26 27 27 27 26 25 25 25 26 26 27
16 17 17 17 17 18 18 19 19 19 19 20 21 21 22 21 20 20 20 21 21 20 20 20 20 20 21 22 22 23 24 24 25 26 26 27 27 27 27 27 26 26 26 26 26 27 27 28 28 28 28 28 27 27 28 29 29 29 28 27 26 25 25 27 28 28 27 27 28 28 27 25 25 24 25 24 25 26 28 28 27 26 26 26 27 27
17 17 17 17 17 17 18 19 19 19 19 20 21 21 22 22 22 21 21 20 20 20 20 20 20 20 21 22 23 24 24 24 24 25 26 26 26 26 26 26 26 26 26 26 25 25 24 24 24 24 24 25 27 27 28 28 29 29 28 27 26 26 26 26 27 28 27 27 26 26 26 25 25 25 25 24 24 26 28 28 28 27 26 25 26 27
17 17 17 17 17 17 18 18 19 19 19 20 21 21 22 22 22 22 21 21 20 20 20 20 20 20 21 22 23 24 24 24 24 24 26 26 26 25 25 25 25 24 23 22 21 20 19 17 17 19 21 21 22 23 26 26 27 26 26 26 26 26 25 26 27 27 27 26 25 25 25 24 24 23 22 22 23 23 25 26 27 27 26 24 24 26
Wind_Direction
300 303 305 306 307 306 305 306 307 308 308 310 311 312 312 313 313 313 314 313 312 312 312 311 310 310 310 309 308 306 304 303 302 302 301 301 300 300 300 301 301 301 301 301 301 300 300 299 298 298 297 297 296 295 294 294 293 292 292 291 291 291 290 290 290 290 290 290 289 289 289 289 288 288 287 287 286 285 284 283 283 282 281 281 281 280
303 305 306 307 307 305 303 305 306 307 307 309 310 311 311 311 311 311 312 311 311 310 309 309 308 308 308 307 307 306 304 302 301 301 301 300 300 300 300 301 301 301 301 301 301 300 300 299 299 298 298 297 296 296 295 295 294 294 293 292 291 291 291 291 290 290 290 290 289 288 287 287 286 285 285 284 283 282 282 281 280 279 279 278 278 277
307 308 308 308 306 304 303 304 306 307 307 307 308 309 310 310 310 310 310 309 309 308 307 307 307 306 306 306 306 305 303 301 300 300 300 300 300 300 300 300 301 301 301 301 300 300 300 299 299 298 298 297 297 296 296 295 295 294 293 293 292 292 292 292 292 291 291 290 289 288 286 286 285 284 283 282 281 281 280 279 279 278 278 277 277 276
308 308 308 309 307 304 303 304 306 307 307 306 307 308 308 308 308 308 308 308 307 307 306 306 306 305 305 305 305 305 303 301 300 300 300 300 300 300 300 300 300 301 300 300 300 300 300 299 299 298 298 298 297 297 296 296 296 295 294 294 294 294 294 293 293 292 291 290 288 287 286 285 284 283 282 281 281 280 280 279 278 278 278 277 277 276
307 308 308 309 308 305 304 305 306 307 306 306 306 306 307 306 306 306 306 306 306 306 306 306 305 305 304 305 305 305 303 301 300 300 300 300 300 300 300 300 300 300 300 300 299 299 299 299 298 298 298 297 297 297 298 298 297 296 296 295 295 295 294 294 293 292 291 290 288 286 285 284 283 282 281 281 280 280 279 279 278 278 277 277 276 275
306 307 308 307 305 304 305 305 306 307 307 306 306 305 304 304 304 304 305 306 306 305 305 305 305 305 305 305 305 304 303 301 300 300 300 299 299 299 299 299 299 299 299 299 298 298 298 298 297 297 297 298 298 298 298 298 298 297 297 296 295 294 293 293 292 291 289 289 288 286 285 284 283 282 281 281 280 280 279 279 278 278 277 276 276 275
305 306 307 306 304 303 304 304 305 306 306 306 305 304 303 303 303 305 306 306 307 306 306 306 306 306 305 305 305 304 303 301 300 300 299 299 299 298 298 298 298 298 298 298 298 297 297 297 297 297 297 298 298 298 298 298 298 297 297 295 295 294 293 292 291 290 289 288 287 287 286 285 284 283 282 281 281 280 280 279 278 278 277 276 275 275
303 305 306 305 305 305 304 303 304 304 304 303 303 303 304 306 307 307 308 308 308 308 308 308 307 306 305 304 304 303 302 302 301 301 300 299 299 298 298 298 297 297 297 297 297 297 296 296 297 297 298 298 298 298 298 297 297 297 296 295 294 293 292 292 291 290 289 288 288 287 287 285 285 284 283 282 281 280 280 279 278 278 277 277 276 276
300 304 305 305 306 306 305 303 303 302 302 301 300 302 306 309 311 311 310 310 309 309 309 308 307 306 305 304 303 303 302 301 301 300 300 299 298 298 298 297 297 297 297 296 296 296 296 297 297 298 298 298 298 298 297 297 297 296 296 295 294 293 292 292 291 290 289 289 288 287 286 285 284 283 283 282 281 281 280 279 279 278 278 277 277 276
299 302 304 304 303 302 301 299 300 302 302 302 302 305 309 312 314 314 313 311 310 310 308 307 306 306 305 305 304 304 303 301 299 298 297 296 296 296 296 295 295 295 296 296 296 296 296 297 297 297 297 297 297 297 297 296 296 296 295 294 294 293 292 291 291 290 289 288 287 287 286 285 284 283 283 282 282 281 281 280 280 279 278 277 276 276
301 303 303 303 301 298 294 292 295 300 304 308 310 310 311 312 314 315 313 312 311 310 308 306 305 305 305 305 305 304 303 301 299 298 297 297 296 296 295 294 294 295 296 296 296 297 296 297 297 297 297 297 296 296 296 295 295 295 294 294 293 293 292 291 290 289 289 288 287 286 285 285 284 284 283 283 282 282 282 281 280 279 278 278 277 277
302 303 302 299 298 296 292 291 294 302 311 315 316 314 313 313 313 312 310 308 308 308 307 306 304 303 303 303 304 303 302 300 299 298 298 298 299 299 298 298 297 298 298 298 297 297 297 297 297 297 296 296 295 295 295 295 294 294 294 293 292 292 291 291 290 289 288 287 287 287 286 286 285 285 284 283 282 282 282 281 280 279 279 279 278 278
301 300 297 294 292 290 290 296 304 312 316 317 316 314 312 312 312 310 306 304 303 304 304 305 304 303 302 301 301 301 300 299 298 298 298 299 300 301 302 302 302 301 301 300 299 298 298 298 298 297 296 295 295 295 294 294 294 294 293 292 292 292 292 291 291 290 289 289 288 288 287 287 286 285 285 284 283 282 281 281 281 280 280 280 279 279
299 295 292 288 286 286 292 306 314 315 314 313 311 309 308 309 310 308 304 301 300 301 302 302 302 302 302 302 301 301 300 299 299 299 299 299 301 303 304 304 303 302 302 300 299 298 299 299 298 297 296 295 295 295 296 296 295 294 293 293 292 292 292 291 291 291 290 290 289 289 288 287 286 285 285 284 283 282 282 282 282 281 280 280 280 279
295 291 287 284 286 295 307 314 314 312 310 309 308 308 307 307 307 305 303 301 301 302 303 302 301 301 302 302 303 304 302 301 301 302 302 302 302 304 305 304 303 301 301 299 298 298 298 298 297 296 296 296 296 296 296 296 295 293 293 292 292 292 292 292 291 291 291 290 289 289 288 287 286 286 285 285 284 283 283 283 282 281 280 280 279 279
288 285 286 293 301 307 311 312 310 308 307 307 307 307 307 305 303 301 300 299 301 302 302 302 303 303 303 304 306 308 307 306 306 306 306 303 303 304 305 304 302 301 300 298 297 297 298 298 297 296 296 296 296 296 294 293 292 292 292 292 292 292 292 292 292 291 291 290 289 289 288 287 287 286 286 286 285 284 283 283 282 281 280 280 279 278
287 293 302 308 308 308 308 308 306 305 305 306 305 304 302 300 298 297 296 296 298 299 298 298 300 303 305 307 308 310 312 313 312 309 306 303 303 304 304 303 301 299 298 297 296 296 297 297 297 296 296 295 295 294 293 293 293 292 292 292 292 292 292 292 292 291 291 290 290 289 289 288 287 287 286 286 285 284 283 282 281 281 280 280 279 278
303 310 311 308 306 305 305 305 304 304 304 304 303 301 298 296 294 293 292 292 292 292 293 293 294 296 299 304 306 308 313 315 313 309 305 302 302 303 304 303 300 297 297 296 295 295 296 296 296 295 295 295 294 293 292 292 292 292 292 292 292 292 292 292 292 292 291 291 290 289 289 288 288 287 287 286 285 284 283 283 282 281 280 279 279 278
310 308 307 304 302 302 302 302 302 302 301 300 299 298 296 294 292 291 290 288 286 285 287 288 289 291 293 296 301 306 311 313 311 307 304 301 301 303 304 302 299 296 295 294 294 294 295 295 295 294 294 294 293 293 292 292 292 292 292 292 292 293 293 292 292 292 291 291 290 290 289 289 288 287 287 286 285 285 284 283 282 281 281 280 279 279
305 303 301 300 300 299 298 297 297 297 297 295 293 292 291 291 290 289 288 287 286 284 283 283 286 290 295 298 301 305 309 311 309 305 301 300 300 301 302 302 299 296 294 293 293 294 294 294 294 294 294 294 293 293 293 293 293 293 293 293 293 293 293 292 292 292 292 291 291 290 290 289 289 288 287 286 286 285 284 283 282 281 280 280 279 279
301 299 297 297 296 295 294 293 294 294 293 291 288 287 286 287 287 287 286 286 286 285 284 285 289 295 300 301 301 302 305 307 306 303 300 299 298 298 300 300 297 295 293 293 293 294 294 294 294 293 293 293 293 293 293 293 292 293 293 293 293 293 293 293 293 292 292 292 291 291 290 289 289 288 287 286 286 285 284 283 282 281 281 280 279 279
296 294 294 293 290 288 288 289 290 290 290 287 285 283 283 282 283 284 286 287 288 291 293 295 298 299 300 298 298 299 301 302 301 299 299 297 295 296 299 299 297 294 293 293 294 295 294 293 292 292 292 292 292 292 292 292 292 293 293 293 293 293 293 293 293 293 292 292 291 291 290 289 289 288 287 286 286 285 285 284 283 283 282 281 280 279
291 291 292 291 289 286 286 286 287 288 288 284 281 279 278 277 278 281 286 292 297 301 302 301 299 298 297 295 296 297 298 298 297 296 294 292 292 295 299 300 298 295 293 293 295 296 295 293 292 291 291 291 291 291 291 291 292 292 293 293 293 293 293 293 293 293 292 292 291 291 290 289 289 288 288 288 287 287 286 286 285 284 283 282 281 280
291 291 291 291 290 290 289 288 288 289 290 288 286 285 286 288 293 299 303 305 305 304 302 301 300 298 297 297 297 297 297 298 297 294 290 288 290 294 298 299 298 295 293 294 295 296 296 294 292 291 291 290 290 290 291 291 291 291 292 292 293 293 293 293 293 292 292 292 291 291 290 290 290 290 290 289 289 288 287 286 286 285 283 282 281 280
293 292 292 291 292 292 292 293 294 296 299 303 307 311 312 311 308 304 302 302 302 302 303 302 301 300 300 301 300 299 298 299 298 294 289 289 290 293 296 297 296 295 294 295 296 297 296 294 293 292 291 290 290 290 290 291 291 291 291 292 292 293 293 292 292 292 292 292 292 291 291 291 291 290 290 289 289 288 287 286 285 284 283 282 281 280
293 292 291 291 291 293 294 296 298 301 303 306 307 308 307 306 304 303 301 301 302 304 305 304 301 299 300 301 300 299 299 301 300 295 290 290 292 293 295 296 296 295 295 297 298 298 296 294 293 292 291 290 289 289 290 290 290 291 291 292 292 292 292 292 292 292 292 292 292 291 291 290 290 290 289 288 288 287 286 285 285 284 283 283 282 281
293 291 290 291 292 293 295 298 299 299 300 300 300 300 301 302 302 301 299 300 303 305 305 301 299 298 299 299 298 298 299 300 299 296 292 290 290 291 293 296 297 296 297 297 298 297 295 294 292 291 290 289 289 289 289 289 290 291 291 291 291 291 292 291 292 291 291 291 291 291 290 290 289 289 288 288 287 287 286 286 285 285 285 284 284 283
294 292 292 293 294 295 296 297 298 298 298 298 298 298 298 299 299 297 296 298 301 301 297 294 293 295 297 296 296 297 298 297 297 296 295 291 287 287 291 296 298 298 299 299 299 298 295 291 290 289 289 289 289 290 290 290 291 291 291 291 291 291 291 291 291 291 291 290 290 290 290 289 289 288 288 288 287 287 287 287 287 287 287 286 284 283
297 297 296 297 298 298 299 299 299 299 299 299 299 298 298 297 295 293 292 295 295 293 289 287 287 288 291 294 296 296 296 294 295 297 299 295 288 287 292 297 299 299 300 301 301 300 296 292 290 289 289 290 290 291 291 292 292 292 291 291 291 290 290 290 290 290 290 290 290 290 289 289 288 288 288 288 288 288 287 287 287 287 287 286 284 282
305 305 304 304 304 304 305 305 305 306 305 301 299 298 296 292 289 288 287 288 287 284 282 283 284 286 290 294 297 297 295 294 296 302 305 300 293 291 295 297 298 298 301 303 304 302 299 297 295 293 292 293 293 293 293 293 293 292 291 291 290 290 289 290 290 290 291 291 290 289 289 289 288 288 288 287 287 287 287 287 287 287 286 285 283 281
311 310 310 309 310 311 312 312 313 312 309 305 300 297 295 291 287 285 283 282 279 277 278 280 282 285 289 293 296 295 292 294 297 302 304 299 292 292 295 296 296 297 298 299 300 302 301 302 301 299 298 297 295 295 294 294 293 292 291 291 290 290 290 290 290 291 291 290 290 289 289 288 288 288 287 287 287 286 286 286 286 286 285 284 282 281
312 312 311 312 314 315 316 316 314 313 309 306 303 300 297 293 289 286 284 281 279 277 278 280 282 284 285 285 283 281 284 290 294 298 300 295 291 291 294 294 294 295 296 293 289 286 295 299 301 301 301 299 296 295 294 293 292 291 291 290 290 289 290 290 291 291 291 290 290 289 289 288 287 287 287 286 286 285 285 285 284 284 283 282 281 279
311 311 311 314 316 317 317 316 313 311 308 305 303 301 300 298 294 291 287 285 283 281 281 281 283 284 284 282 280 280 282 286 290 294 296 293 290 291 293 293 293 294 296 293 289 285 284 286 294 298 299 298 296 295 294 293 292 291 290 289 288 289 290 291 291 290 290 290 290 289 289 288 287 286 286 285 284 284 283 283 283 282 280 280 278 278
311 312 315 317 318 317 315 314 313 311 309 306 304 302 301 300 298 295 292 289 287 284 281 280 280 281 282 283 282 282 283 285 289 293 294 292 289 289 292 292 292 294 295 294 292 289 286 286 290 294 297 298 297 295 293 293 292 291 290 288 288 288 289 290 290 290 289 289 289 289 288 288 287 286 286 285 284 283 282 282 281 280 278 277 276 275
315 317 318 318 317 315 314 313 312 312 310 308 306 304 303 302 300 298 295 293 290 286 283 279 277 276 277 279 281 283 284 286 290 293 293 290 288 288 290 290 291 293 293 293 292 292 290 289 290 292 295 297 297 296 294 293 293 292 291 289 288 288 288 289 289 289 289 289 288 287 287 287 287 286 286 285 284 283 283 282 282 281 279 276 275 274
319 318 317 316 315 313 313 313 313 312 311 310 308 306 305 303 301 300 298 295 292 289 285 281 278 276 275 274 275 277 281 286 290 291 290 288 286 287 288 288 288 289 289 289 289 290 290 290 291 292 292 294 295 296 296 296 295 294 292 291 290 289 288 289 288 288 287 287 286 285 285 286 286 285 285 285 284 284 284 283 282 281 280 278 276 275
317 315 314 314 314 313 313 313 313 313 312 311 310 308 307 305 303 301 298 296 293 291 289 285 282 278 276 274 274 275 278 283 286 287 287 285 284 283 283 284 285 286 284 285 286 287 289 290 291 292 291 290 292 294 297 299 299 296 294 292 292 291 289 289 288 287 285 284 284 283 284 284 284 284 284 284 284 283 283 282 281 280 279 278 277 276
314 313 313 313 314 314 313 313 312 312 311 311 310 309 307 305 303 301 299 296 294 293 291 289 286 284 282 279 278 278 280 282 284 285 286 285 283 281 280 281 282 283 281 280 282 284 285 287 289 291 291 291 291 292 294 297 297 296 294 294 293 291 290 289 288 287 285 283 283 283 283 283 283 283 283 283 283 282 282 281 280 280 280 279 277 276
313 313 313 313 313 313 312 311 310 310 309 309 308 308 307 305 304 302 300 298 296 294 293 291 290 288 288 286 285 283 283 283 284 285 286 286 284 281 279 279 280 281 281 280 279 279 279 281 283 285 288 291 292 292 293 293 293 293 294 295 294 292 290 290 289 287 285 284 283 283 283 283 282 282 281 281 281 280 279 278 279 279 279 278 277 277
314 312 311 311 310 309 309 307 308 308 308 308 308 308 307 306 306 305 303 301 300 298 297 295 294 293 292 290 288 287 286 285 286 286 287 286 285 283 280 278 278 279 280 280 278 276 275 276 278 281 283 285 288 290 291 291 291 291 293 294 294 293 293 292 291 289 287 285 283 282 282 282 282 280 280 279 278 277 275 276 277 278 277 274 273 273
312 311 309 309 308 308 307 307 307 307 307 308 308 308 308 307 307 307 307 306 304 303 303 302 300 298 297 295 293 291 290 289 289 288 288 288 288 286 283 280 278 278 278 279 278 276 274 275 276 278 280 281 283 285 286 287 288 289 290 289 289 290 292 291 290 288 286 285 283 282 281 281 281 280 279 278 277 276 274 273 273 273 273 271 268 267
309 307 307 307 307 306 306 306 307 307 309 309 308 306 306 306 306 307 307 306 306 306 306 305 303 302 301 299 298 297 295 293 292 292 292 291 291 289 286 282 280 278 277 277 277 276 275 275 275 276 278 279 281 283 285 286 287 287 287 285 286 289 291 290 289 287 286 284 283 283 282 281 280 279 279 277 277 276 275 273 272 272 270 269 266 264
305 304 305 306 306 306 306 307 308 310 310 309 307 306 305 305 306 306 305 304 304 305 305 304 302 301 300 300 301 302 301 300 299 297 296 294 293 291 288 285 283 280 278 276 276 276 276 276 275 274 275 277 278 279 282 285 286 286 285 284 285 287 288 288 289 288 286 284 283 282 281 279 279 278 278 277 277 276 275 273 273 272 268 266 265 264
303 303 304 305 306 308 309 310 310 311 310 308 306 305 306 305 305 304 303 301 301 302 303 302 302 300 298 299 301 303 304 305 304 302 299 297 295 293 290 288 285 283 278 273 272 274 278 278 277 276 275 276 276 277 279 281 283 284 284 284 282 281 279 282 286 287 287 284 283 281 280 279 279 279 280 278 277 276 275 273 271 270 267 265 264 262
304 304 306 307 309 310 310 310 310 309 308 307 305 305 306 306 305 304 303 300 300 301 301 301 301 301 299 300 301 304 305 306 306 305 304 302 300 297 294 290 287 284 280 275 271 270 272 275 277 278 278 277 275 274 275 278 280 282 283 283 282 280 278 279 282 283 283 283 282 281 280 280 280 280 279 279 279 277 275 273 271 270 268 266 264 261
308 308 309 310 310 309 309 309 309 309 307 306 305 305 306 307 306 304 302 300 299 299 300 300 299 298 298 299 301 304 305 306 307 307 307 306 304 301 298 293 289 285 281 277 274 272 270 270 273 277 279 279 277 275 274 275 277 280 281 282 282 282 281 282 281 281 281 281 281 281 281 281 280 279 278 278 279 278 277 274 271 269 268 266 264 262
310 310 311 311 310 310 309 309 309 309 307 305 305 306 307 307 307 306 304 301 299 299 300 301 299 296 295 297 299 301 302 303 305 306 306 307 306 304 302 298 293 289 284 280 277 275 272 271 271 272 274 276 277 278 278 278 277 278 279 281 282 282 282 282 282 282 282 281 280 280 281 281 281 280 279 279 279 280 279 276 273 270 268 267 265 264
312 311 311 310 310 309 309 309 309 308 306 305 306 306 307 307 306 305 304 303 302 301 301 301 300 297 296 297 297 298 299 299 300 302 303 304 305 305 303 301 298 295 291 286 282 278 275 273 271 269 268 269 271 275 277 278 278 277 277 279 280 281 280 281 283 284 283 281 280 279 279 278 277 277 278 280 280 281 280 279 276 274 271 269 268 267
311 310 309 309 308 307 308 308 308 307 306 306 306 307 308 308 307 305 303 303 303 301 300 299 298 298 298 298 298 299 299 299 298 299 300 302 303 303 303 303 302 301 298 294 290 286 283 280 276 271 266 262 263 266 271 274 275 276 277 278 278 278 278 280 283 284 284 283 281 280 279 276 275 275 277 278 280 281 282 282 280 278 275 272 270 269
310 310 309 308 307 306 306 306 307 307 305 306 307 307 308 309 308 306 304 303 302 301 299 298 297 297 298 298 298 299 300 299 299 299 299 301 302 303 302 303 303 303 302 300 298 295 293 290 287 281 273 265 260 260 263 268 273 275 277 277 277 277 278 279 282 284 284 283 282 281 280 278 276 275 276 277 279 282 283 283 282 280 278 275 272 270
310 309 309 307 306 305 305 306 306 306 305 305 306 306 307 308 308 308 307 306 304 302 300 298 297 296 297 298 298 298 299 298 298 297 298 300 301 301 301 301 302 302 302 302 301 301 301 299 297 294 290 282 271 263 261 265 270 274 277 277 277 278 279 280 281 283 283 283 282 281 280 279 278 277 275 276 279 282 284 284 283 282 280 277 274 271